Location: Ravensburg
(47.7866°N, 9.6124°E)
Time: 09:31:33
(UTC+02:00)

METEOR M2 - Pass Details

Date: 22 March 2026
Orbit: 817 x 824 km, 98.5° (Epoch: 18 April)

Event Time Altitude Azimuth Distance (km) Brightness Sun altitude
Rises 04:54:56 0° 13° (NNE) 3,373 ? -15.0°
Reaches altitude 10° 04:57:18 10° 14° (NNE) 2,436 ? -14.6°
Maximum altitude 05:02:43 87° 288° (WNW) 832 ? -13.8°
Drops below altitude 10° 05:08:05 10° 198° (SSW) 2,416 ? -12.9°
Sets 05:10:25 0° 198° (SSW) 3,343 ? -12.5°
